Flag for Netherlands Weather past 2 weeks in Apeldoorn, Netherlands

Now
79 °F

Warm.


Feels Like: 80 °F
Forecast: 62 / 77 °F
Wind: 13 mph from Northeast

Location: Deelen

Current Time: Jul 23, 2014 at 2:18:56 AM

Latest Report: Jul 22, 2014 at 6:55 PM


Visibility: N/A

Pressure: 30.07 "Hg

Humidity: 54%

Dew point: 61 °F

Location of ApeldoornLocation

Historic Weather in Apeldoorn — Graph

°F

Apeldoorn temperature yesterday

Maximum temperature yesterday: 81 °F (at 3:25 PM)
Minimum temperature yesterday: 64 °F (at 4:55 AM)
Average temperature yesterday: 71 °F

Past Weeks' High & Low Weather Summary

 TemperatureHumidityPressure
High93 °F (Jul 19, 5:25 PM)100% (Jul 8, 10:55 AM)30.18 "Hg (Jul 8, 10:55 AM)
Low54 °F (Jul 16, 5:25 AM)26% (Jul 19, 2:25 PM)29.68 "Hg (Jul 9, 2:55 PM)
Average68 °F79%29.93 "Hg
* Reported Jul 7 6:25 PM — Jul 22 6:55 PM, Apeldoorn, Weather by CustomWeather, © 2014

Note: Actual official high and low records may vary slightly from our data, if they occured in-between our weather recording intervals... More about our weather records

Advertising

Apeldoorn weather history for previous 24 hours

 ConditionsComfort  
Time TempWeatherWind HumidityBarometerVisibility
6:55 PM
Jul 22
79 °FWarm.13 mph54%30.07 "HgN/A
6:25 PM81 °FScattered clouds.13 mph51%30.07 "HgN/A
5:55 PM81 °FPartly sunny.10 mph54%30.07 "HgN/A
5:25 PM81 °FPassing clouds.13 mph54%30.07 "HgN/A
4:55 PM79 °FScattered clouds.12 mph54%30.07 "HgN/A
4:25 PM81 °FPassing clouds.14 mph51%30.07 "HgN/A
3:55 PM81 °FPassing clouds.15 mph54%30.07 "HgN/A
3:25 PM81 °FWarm.15 mph54%30.07 "HgN/A
2:55 PM79 °FWarm.15 mph54%30.07 "HgN/A
2:25 PM77 °FPassing clouds.12 mph61%30.07 "HgN/A
1:55 PM77 °FPassing clouds.12 mph65%30.07 "HgN/A
1:25 PM75 °FMild.12 mph61%30.09 "HgN/A
12:55 PM75 °FMild.12 mph61%30.09 "HgN/A
12:25 PM73 °FPassing clouds.12 mph74%30.09 "HgN/A
11:55 AM73 °FPassing clouds.10 mph69%30.07 "HgN/A
11:25 AM72 °FMild.13 mph78%30.07 "HgN/A
10:55 AM72 °FMild.10 mph73%30.07 "HgN/A
10:25 AM72 °FMild.13 mph78%30.07 "HgN/A
9:55 AM70 °FPassing clouds.10 mph78%30.07 "HgN/A
9:25 AM68 °FScattered clouds.9 mph83%30.07 "HgN/A
8:55 AM66 °FOvercast.8 mph88%30.07 "HgN/A
8:25 AM66 °FHigh level clouds.9 mph88%30.04 "HgN/A
7:55 AM66 °FOvercast.9 mph88%30.04 "HgN/A
7:25 AM66 °FOvercast.9 mph88%30.04 "HgN/A
6:55 AM64 °FOvercast.5 mph94%30.04 "HgN/A
6:25 AM64 °FFog.6 mph94%30.04 "Hg5 mi
5:55 AM64 °FMostly cloudy.5 mph94%30.01 "HgN/A
5:25 AM64 °FFog.5 mph100%30.01 "Hg6 mi
4:55 AM64 °FFog.6 mph100%30.01 "Hg6 mi
4:25 AM66 °FFog.5 mph94%30.01 "Hg5 mi
3:55 AM66 °FFog.5 mph94%30.01 "Hg4 mi
3:25 AM66 °FFog.3 mph94%30.01 "Hg3 mi
2:55 AM66 °FThunderstorms. Fog.2 mph94%30.01 "Hg3 mi
2:25 AM66 °FFog.5 mph94%30.01 "Hg3 mi
Weather by CustomWeather, © 2014

See weather overviewHow to use our weather pages